Location: Hopville
(44.8032°N, 123.1329°W)
Time: 04:53:19
(UTC+00:00)

PSLV R/B - Pass Details

Date: 24 January 2021
Orbit: 504 x 577 km, 97.8° (Epoch: 26 February)

Event Time Altitude Azimuth Distance (km) Brightness Sun altitude
Rises 14:43:03 0° 5° (N) 2,731 7.3 -10.2°
Reaches altitude 10° 14:45:14 10° 358° (N) 1,844 6.3 -9.8°
Maximum altitude 14:48:59 40° 289° (WNW) 842 4.3 -9.2°
Drops below altitude 10° 14:52:46 10° 220° (SW) 1,865 6.3 -8.5°
Sets 14:55:00 0° 213° (SSW) 2,765 7.3 -8.1°
